Flag for U.S.A. Weather past 2 weeks in Rockford, Illinois, U.S.A.

Now
81 °F

Partly sunny.


Feels Like: 81 °F
Forecast: 57 / 83 °F
Wind: 10 mph from South

Location: Greater Rockford Airport

Current Time: May 28, 2015 at 1:28:10 PM

Latest Report: May 28, 2015 at 12:54 PM


Visibility: 10 mi

Pressure: 30.16 "Hg

Humidity: 44%

Dew point: 57 °F

Location of RockfordLocation

Historic Weather in Rockford — Graph

°F

Rockford temperature yesterday

Maximum temperature yesterday: 76 °F (at 3:54 PM)
Minimum temperature yesterday: 62 °F (at 2:54 AM)
Average temperature yesterday: 68 °F

Past Weeks' High & Low Weather Summary

 TemperatureHumidityPressure
High82 °F (May 17, 2:54 PM)94% (May 16, 7:54 AM)30.48 "Hg (May 16, 7:54 AM)
Low40 °F (May 20, 4:54 AM)21% (May 23, 4:54 PM)29.72 "Hg (May 26, 3:54 PM)
Average63 °F66%30.08 "Hg
* Reported May 13 11:54 AM — May 28 11:54 AM, Rockford, Weather by CustomWeather, © 2015

Note: Actual official high and low records may vary slightly from our data, if they occured in-between our weather recording intervals... More about our weather records

Advertising

Rockford weather history for previous 24 hours

 ConditionsComfort  
Time TempWeatherWind HumidityBarometerVisibility
11:54 AM
Thu, May 28
79 °FPartly sunny.10 mph50%30.17 "Hg10 mi
10:54 AM78 °FPartly sunny.8 mph52%30.19 "Hg10 mi
9:54 AM76 °FPartly sunny.9 mph60%30.20 "Hg10 mi
8:54 AM71 °FScattered clouds.3 mph68%30.21 "Hg10 mi
7:54 AM66 °FPassing clouds.3 mph75%30.20 "Hg10 mi
6:54 AM62 °FPassing clouds.No wind83%30.18 "Hg10 mi
5:54 AM57 °FPassing clouds.5 mph87%30.18 "Hg10 mi
4:54 AM58 °FPassing clouds.No wind87%30.17 "Hg10 mi
3:54 AM56 °FClear.3 mph90%30.15 "Hg10 mi
2:54 AM58 °FClear.6 mph90%30.15 "Hg10 mi
1:54 AM60 °FClear.3 mph83%30.16 "Hg10 mi
12:54 AM59 °FClear.3 mph90%30.15 "Hg10 mi
11:54 PM
Wed, May 27
63 °FPassing clouds.No wind81%30.13 "Hg10 mi
10:54 PM62 °FPassing clouds.3 mph83%30.13 "Hg10 mi
9:54 PM65 °FPassing clouds.3 mph76%30.11 "Hg10 mi
8:54 PM66 °FPassing clouds.3 mph73%30.09 "Hg10 mi
7:54 PM73 °FSunny.No wind53%30.06 "Hg10 mi
6:54 PM75 °FPassing clouds.7 mph50%30.05 "Hg10 mi
5:54 PM76 °FPassing clouds.10 mph48%30.05 "Hg10 mi
4:54 PM76 °FPassing clouds.8 mph47%30.05 "Hg10 mi
3:54 PM76 °FPassing clouds.9 mph48%30.03 "Hg10 mi
2:54 PM75 °FScattered clouds.13 mph52%30.03 "Hg10 mi
1:54 PM74 °FBroken clouds.16 mph57%30.02 "Hg10 mi
Weather by CustomWeather, © 2015

See weather overviewHow to use our weather pages